Weather Roundup
Issued by NWS

Home | Current Version | Previous Version | Graphics & Text | Print | Product List | Glossary Off
Versions: 1 2 3 4 5 6 7 8 9 10 11 12 13 14 15 16 17 18 19 20 21 22 23 24 25 26 27 28 29 30 31 32 33 34 35 36 37 38 39 40 41 42 43 44 45 46 47 48 49 50

109
NZUS93 KARX 111359
HRRWXR

CURRENT HOURLY OBSERVATIONS ACROSS
MUCH OF THE UPPER MISSISSIPPI VALLEY
NATIONAL WEATHER SERVICE LA CROSSE WI
800 AM CST THU FEB 11 2016


...SOUTHEAST MINNESOTA...


CITY           SKY/WX    TMP DP  RH WIND       PRES   REMARKS
ROCHESTER      PTCLDY    -2  -8  76 W8        30.28S WCI -17
ROCHESTER/MAYO FAIR       2  -3  78 CALM      30.30S
WINONA         CLOUDY    -2  -8  78 CALM      30.36S
AUSTIN         PTCLDY    -6  -8  92 CALM      30.30R
ALBERT LEA       N/A     -4  -8  84 CALM      30.29S
DODGE CENTER   CLOUDY    -2  -8  78 W3        30.27F
PRESTON        CLOUDY    -1  -7  74 NW5       30.29S WCI -11
OWATONNA       CLOUDY     0  -6  78 CALM      30.30S
FARIBAULT        N/A     -8 -11  84 CALM      30.31S
$$

...ELSEWHERE IN MINNESOTA...


CITY           SKY/WX    TMP DP  RH WIND       PRES   REMARKS
MINNEAPOLIS    CLOUDY     5  -5  63 CALM      30.33S
INTNL FALLS    CLOUDY    -8 -13  78 SW5       30.21F WCI -19
DULUTH         CLOUDY    -9 -15  75 W6        30.20F WCI -22
RED WING       CLOUDY    -6 -11  77 CALM      30.34R
REDWOOD FALLS  CLOUDY     0  -3  87 S3        30.30S
MANKATO        CLOUDY     0  -4  85 SE5       30.31R WCI -10
WORTHINGTON    CLOUDY     9   1  72 SE6       30.26S WCI  -1
FAIRMONT       PTCLDY    -6 -11  77 CALM      30.28S
$$

...SOUTHWEST WISCONSIN...


CITY           SKY/WX    TMP DP  RH WIND       PRES   REMARKS
LA CROSSE      CLOUDY    -2  -6  83 CALM      30.35R
PRAIRIE DU CHI PTCLDY    -2  -8  76 CALM      30.36R
BOSCOBEL       PTCLDY    -4  -8  83 CALM      30.36R
LONE ROCK      NOT AVBL
PLATTEVILLE    CLOUDY     2  -4  76 W3        30.31R
FORT MC COY    CLOUDY   -18 -23  78 CALM      30.32S
VIROQUA        FAIR      -1  -5  83 SW6       30.27R WCI -13
WIS DELLS      PTCLDY    -6 -10  82 CALM      30.29R
$$

...ELSEWHERE IN WISCONSIN...


CITY           SKY/WX    TMP DP  RH WIND       PRES   REMARKS
MILWAUKEE      PTCLDY     7  -3  64 NW8       30.27S WCI  -6
MADISON        CLEAR      3  -4  72 CALM      30.29S
GREEN BAY      CLEAR     -2  -7  79 W8        30.26R WCI -17
EAU CLAIRE     NOT AVBL
BLACK RVR FLS  FAIR     -19 -26  69 CALM      30.31S
MEDFORD        CLOUDY   -12 -16  83 CALM      30.20S
WAUSAU         CLOUDY    -3  -8  79 NW9       30.22R WCI -19
WIS RAPIDS     CLOUDY    -5 -10  79 CALM      30.29R
MARSHFIELD     CLOUDY    -8 -13  78 CALM      30.23R
RICE LAKE      CLOUDY   -12 -17  79 CALM      30.30S
$$

...NORTHEAST IOWA...


CITY           SKY/WX    TMP DP  RH WIND       PRES   REMARKS
WATERLOO       PTCLDY     0  -6  76 NW3       30.33S
DUBUQUE        CLOUDY     6  -2  69 N3        30.30R
DECORAH        PTCLDY    -2  -8  78 CALM      30.30S
MASON CITY     PTCLDY    -3  -8  79 W5        30.32R WCI -13
CHARLES CITY   PTCLDY    -4  -9  77 N7        30.31F WCI -18
OELWEIN        CLOUDY     0  -8  71 N3        30.31F
$$

...ELSEWHERE IN IOWA...


CITY           SKY/WX    TMP DP  RH WIND       PRES   REMARKS
DES MOINES     CLOUDY     8  -2  63 NE3       30.33R
IOWA CITY      PTCLDY    10   1  67 N6        30.37R WCI   0
FORT DODGE     PTCLDY     1  -6  71 CALM      30.32R
MARSHALLTOWN   PTCLDY     0  -6  76 N5        30.32S WCI -10
CEDAR RAPIDS   CLOUDY     5   2  87 NW3       30.32R
$$

...NORTHERN ILLINOIS...


CITY           SKY/WX    TMP DP  RH WIND       PRES   REMARKS
CHICAGO-OHARE  MOSUNNY    8  -2  63 NW10      30.29R WCI  -6
CHICAGO-MIDWAY MOSUNNY   11  -3  53 NW10      30.29R WCI  -3
MOLINE         PTCLDY    12   0  58 N7        30.35R WCI   1
ROCKFORD       CLEAR      8   0  69 NW7       30.33R WCI  -3
PEORIA         CLEAR     12   3  67 N5        30.33R WCI   4
$$

NOTE: "FAIR" INDICATES FEW OR NO CLOUDS BELOW 12,000 FEET WITH NO
SIGNIFICANT WEATHER AND/OR OBSTRUCTIONS TO VISIBILITY. WIND
SPEEDS ARE IN MILES-PER-HOUR.




USA.gov is the U.S. government's official web portal to all federal, state and local government web resources and services.